Theta_e
326 324 318 313 302 302 299 304 311 310 312 317 320 316 316 318 313 309 330 333 333 339 343 344 344 346 347 346 345 343 340 338 337 336 336 335 335 335 334 334 334 334 334 334 333 333 332 332 331
321 321 315 308 299 295 298 306 309 311 318 318 318 319 318 316 322 324 329 332 336 339 343 344 343 346 346 346 344 344 340 337 336 336 335 335 335 334 334 334 333 333 333 332 331 331 330 330 330
321 316 310 303 297 296 299 308 311 313 317 315 317 321 320 319 324 328 330 335 338 339 342 343 343 345 347 347 345 343 339 337 336 335 335 335 334 334 334 333 333 333 332 332 332 332 332 332 332
314 313 307 301 298 301 304 310 312 313 314 318 319 317 324 327 327 328 334 337 337 339 341 342 343 346 346 345 344 342 338 336 335 335 334 335 334 333 333 332 332 332 332 332 333 332 332 332 332
312 309 300 298 299 302 305 313 313 311 312 315 316 316 320 324 328 334 334 335 334 337 340 341 341 344 344 344 342 341 338 336 335 335 334 334 333 332 332 332 332 332 333 333 334 334 334 334 333
307 307 298 296 300 303 310 313 313 310 315 316 316 316 319 327 329 331 334 333 336 336 337 338 334 339 341 342 341 340 339 337 336 334 334 334 333 333 333 333 334 334 334 335 335 334 334 335 335
305 302 299 299 300 302 307 312 311 310 310 314 319 314 320 324 330 331 333 333 335 336 335 335 337 335 334 338 338 338 339 338 338 337 336 335 335 334 334 334 334 334 335 335 336 336 335 335 335
306 304 300 301 300 302 307 308 309 310 308 320 321 313 316 325 331 332 331 332 332 334 332 332 334 336 338 339 331 334 336 336 336 335 333 331 331 331 330 329 330 333 334 335 335 336 336 335 335
309 300 298 301 303 305 307 306 312 318 317 319 321 320 323 329 331 330 329 329 328 329 330 331 332 334 335 335 331 329 328 331 330 331 328 329 333 331 328 325 327 331 332 333 333 333 334 333 330
304 298 300 305 307 305 307 307 311 312 314 316 318 321 326 328 328 326 324 321 323 325 328 330 331 332 334 333 333 333 333 334 334 335 334 333 332 330 327 323 323 326 326 327 330 330 329 326 329
303 298 302 304 307 307 306 304 308 310 306 315 315 318 321 326 326 325 324 324 324 326 327 329 332 332 332 335 331 331 331 332 333 334 334 332 331 330 329 330 331 331 324 329 328 328 328 328 328
301 303 304 307 305 307 305 305 309 311 312 316 322 321 320 322 322 324 323 324 325 327 328 329 331 330 332 333 332 332 331 332 331 332 331 331 331 331 330 330 330 328 329 328 328 328 327 327 327
300 302 304 304 304 308 312 308 310 306 315 312 311 312 314 311 309 309 311 312 323 322 326 330 332 332 332 330 331 332 331 331 332 332 331 331 330 329 330 329 328 328 330 327 327 328 326 327 327
302 302 302 302 303 305 301 297 306 299 306 305 306 304 304 304 306 306 307 307 309 312 315 320 328 331 333 332 331 330 330 330 329 329 327 330 330 328 328 329 329 329 328 327 327 327 327 327 328
302 299 299 298 301 300 303 297 293 300 302 300 300 300 301 301 302 301 302 304 305 308 311 314 321 326 330 330 327 331 330 322 316 315 313 315 319 325 325 321 321 321 318 316 322 322 324 321 315
298 299 294 297 299 298 301 292 293 301 300 297 297 298 298 298 299 299 300 301 303 305 307 310 314 328 325 331 324 319 313 310 309 308 309 308 310 314 312 312 311 311 309 307 310 315 319 307 308
297 291 292 293 294 297 298 290 293 300 299 296 296 296 297 297 297 298 298 299 299 301 303 310 312 323 326 320 314 309 307 304 303 303 303 303 304 306 306 305 305 305 304 303 305 308 313 303 304
292 291 292 292 292 293 290 288 293 297 297 295 294 295 295 294 294 296 296 297 297 298 300 304 311 322 320 315 310 306 303 301 300 300 300 300 301 302 302 302 302 302 301 300 301 303 305 303 301
297 294 291 292 294 290 288 288 291 294 295 294 294 294 294 293 294 294 294 295 296 296 297 300 303 312 317 312 307 303 299 298 298 298 298 298 299 299 300 299 299 300 298 297 297 298 300 299 300
295 295 291 295 295 291 289 287 290 291 292 294 294 293 293 293 292 292 292 293 293 293 294 297 299 301 305 307 305 301 297 297 296 296 296 296 297 297 297 297 296 297 296 295 294 295 296 297 298
294 295 290 291 292 292 290 288 288 289 291 292 292 293 293 292 290 290 290 291 291 291 292 294 296 297 298 300 298 297 297 296 294 294 293 294 295 296 296 295 294 294 294 293 292 292 293 293 295
290 297 295 292 290 283 292 285 289 288 288 290 290 291 290 290 290 290 289 289 290 290 291 292 293 294 295 296 295 294 292 291 292 292 292 292 293 293 294 293 292 292 292 291 291 291 292 293 290
292 298 296 295 291 288 286 286 289 288 286 287 289 290 290 290 289 288 288 289 290 290 290 291 291 291 292 292 293 292 291 291 291 291 290 291 291 292 292 291 290 290 291 290 289 289 290 291 289
297 295 295 295 292 283 287 286 287 285 288 289 290 290 290 289 289 289 290 290 289 290 290 290 289 289 290 290 290 290 289 289 288 288 288 289 289 290 291 290 289 289 289 289 288 288 288 289 288
292 291 283 282 281 282 288 287 288 291 292 292 290 290 290 290 289 288 288 288 289 289 290 289 288 287 288 288 288 288 287 287 286 286 286 287 287 287 288 289 287 287 287 288 287 286 286 287 287
289 291 282 276 278 281 287 284 290 287 288 292 292 290 289 288 289 288 288 288 288 288 288 288 287 286 286 286 286 286 286 286 285 285 285 286 287 287 287 288 287 286 286 286 286 285 285 286 286
288 286 290 282 278 281 286 287 286 286 287 289 288 288 288 288 288 287 287 287 287 287 287 287 286 286 285 285 284 284 284 284 283 284 284 285 286 287 286 286 286 286 285 285 285 283 283 284 285
291 293 285 284 277 275 280 281 284 282 284 287 287 287 287 287 287 286 286 286 286 286 286 286 286 284 284 284 284 283 283 283 283 283 282 283 284 285 285 285 284 285 285 285 284 283 282 282 282
288 288 287 286 283 278 275 280 285 286 287 287 288 288 287 286 286 285 285 286 285 285 285 285 285 284 284 283 283 282 282 282 282 282 282 282 283 284 283 283 283 283 283 284 283 283 282 281 281
288 288 287 282 279 280 280 280 284 284 288 289 288 288 287 286 286 285 285 284 284 284 284 284 284 283 283 283 282 281 281 281 281 281 281 282 281 282 282 282 281 281 281 282 282 282 282 280 280
Wind_Speed
2 1 2 5 5 4 2 2 1 2 2 2 2 3 7 4 2 2 2 3 10 11 9 12 12 12 12 13 14 15 13 13 12 12 11 11 11 10 10 10 10 10 9 10 9 9 9 9 9
2 1 4 3 5 2 3 3 2 2 6 5 5 3 5 4 2 5 7 6 11 9 7 8 10 12 11 11 15 13 13 12 11 11 10 10 9 9 9 9 9 9 9 8 8 8 8 9 9
1 3 4 4 3 4 4 3 4 4 6 2 4 5 3 3 2 9 5 13 11 9 7 7 9 11 10 13 15 13 12 12 10 9 9 9 9 9 8 8 8 8 7 7 6 7 7 8 8
2 4 4 4 4 4 4 3 4 7 2 4 4 7 3 3 4 5 13 15 13 8 7 9 11 10 12 14 14 12 11 10 9 9 8 8 8 7 6 6 6 6 6 7 8 8 7 8 8
4 3 4 2 4 3 3 2 5 4 4 3 1 4 3 3 6 13 15 13 14 10 6 7 9 10 10 10 10 10 10 9 8 7 7 6 5 4 4 4 4 5 6 6 7 8 8 9 9
3 2 4 2 4 3 2 4 6 3 2 3 5 4 3 4 9 12 11 12 12 11 7 5 6 7 9 10 9 8 7 7 7 5 4 4 3 3 4 5 6 6 7 7 8 8 9 9 10
5 4 5 4 3 2 4 3 6 5 4 3 5 5 3 5 8 12 11 11 9 10 8 6 5 4 5 8 8 7 6 5 4 3 2 3 3 4 5 7 8 8 9 9 9 9 9 10 10
5 4 4 3 4 3 3 3 4 5 3 3 2 5 6 5 11 11 10 9 10 9 9 7 6 5 5 4 7 5 5 4 3 1 2 3 4 5 5 5 5 8 9 10 11 10 10 10 10
3 4 3 4 5 3 4 4 2 1 7 4 3 2 5 15 13 10 10 7 8 7 8 8 7 5 4 5 3 2 2 2 1 1 2 3 3 5 6 6 7 9 9 9 9 9 9 7 8
4 3 8 4 2 4 5 4 6 4 4 5 5 9 11 14 12 11 11 10 8 8 7 7 8 7 5 3 4 3 2 2 2 2 3 3 4 4 5 7 8 9 8 8 9 9 8 6 4
4 5 5 3 4 2 6 4 3 7 3 3 9 11 8 11 9 10 10 10 9 8 6 7 7 6 6 4 3 2 2 2 3 5 4 4 4 3 3 3 3 4 5 4 5 6 4 6 6
4 5 4 2 3 3 5 5 6 7 3 4 12 11 6 7 6 6 8 8 8 7 7 7 6 6 6 3 3 3 3 3 3 3 4 3 2 3 4 3 4 3 3 5 4 3 5 7 7
4 4 5 2 7 7 11 7 8 9 11 14 14 13 11 11 9 9 7 7 3 0 2 5 6 6 5 5 4 3 2 1 2 3 4 3 3 3 3 3 3 3 4 4 5 6 6 6 8
6 5 4 3 6 3 9 4 3 7 6 13 15 13 11 11 9 7 9 8 7 5 4 4 6 7 6 4 2 0 1 2 3 5 8 8 4 2 3 4 5 5 5 4 4 6 6 6 7
2 6 3 4 1 5 6 6 5 8 9 13 13 11 11 11 10 9 7 6 6 4 6 6 4 5 6 4 3 5 7 8 7 7 11 11 10 9 8 7 7 7 8 9 8 9 8 8 8
3 4 5 1 0 2 6 3 2 10 10 10 9 10 10 10 9 7 8 6 7 7 7 6 7 0 6 8 9 8 8 8 7 7 8 13 12 13 9 8 8 8 8 8 7 8 6 8 8
4 6 5 3 4 1 3 4 1 8 10 9 7 7 7 7 8 8 7 7 8 7 7 5 6 3 13 13 11 10 11 9 8 7 8 10 11 11 10 8 8 9 8 8 7 7 6 8 9
8 6 3 5 2 7 6 5 5 4 7 9 6 6 7 6 7 7 8 7 7 7 7 6 6 6 14 11 9 8 9 9 8 8 9 12 10 13 10 9 10 9 8 9 8 7 8 8 9
5 4 6 3 4 6 4 8 6 6 8 9 6 6 6 6 4 7 8 7 7 10 10 11 10 9 7 7 7 7 8 8 9 8 13 12 11 13 11 8 9 9 9 10 11 7 7 9 11
17 9 4 3 7 6 3 7 3 2 3 4 8 5 5 5 5 8 8 9 10 9 10 11 11 10 8 5 6 5 7 8 8 8 11 12 12 12 11 10 9 10 8 11 12 11 4 6 10
13 12 7 6 7 6 5 3 4 1 2 3 4 5 4 6 5 7 8 8 9 10 11 10 10 11 9 9 9 8 6 5 5 8 8 10 12 12 12 12 10 10 9 8 10 10 11 6 6
9 1 12 15 7 4 3 6 6 7 5 4 6 6 6 8 5 6 6 8 9 9 10 11 11 11 11 9 10 11 7 6 4 6 6 7 11 12 12 12 11 10 8 10 9 9 8 7 8
4 11 11 11 10 5 5 4 2 13 9 10 9 7 8 7 7 8 7 7 7 8 8 9 12 13 12 11 11 9 11 7 6 5 8 9 9 11 11 11 10 10 8 9 10 10 10 8 7
5 6 10 9 6 5 9 9 4 8 11 10 8 10 11 10 9 9 7 8 8 7 8 9 12 12 11 11 11 11 11 8 7 6 6 6 6 7 10 10 9 9 8 9 8 8 10 8 8
5 9 2 4 5 3 7 10 7 6 6 17 20 17 13 11 11 11 10 7 8 9 8 9 11 11 10 11 12 10 10 9 9 6 6 6 6 6 8 9 9 8 8 8 8 8 9 8 8
14 10 6 7 6 6 5 5 4 2 4 9 16 16 13 12 9 8 9 9 8 10 10 9 9 9 9 9 10 9 8 6 6 6 6 5 5 5 6 7 7 8 8 7 8 7 7 7 6
8 10 6 7 2 4 4 1 3 1 4 11 15 17 16 13 11 10 9 8 8 8 8 9 10 8 8 8 7 8 7 7 7 6 6 4 4 4 5 6 6 7 8 8 6 7 7 7 5
6 8 2 1 6 4 3 4 6 3 8 11 15 17 15 14 13 10 8 8 5 8 8 7 8 8 7 7 6 6 6 6 6 5 5 5 4 5 5 6 6 6 6 6 6 5 6 6 5
4 5 2 4 1 4 3 5 3 9 15 21 20 18 17 15 14 11 9 8 7 6 7 7 6 7 6 6 6 6 5 5 5 4 4 3 4 4 5 5 5 5 5 5 5 4 5 6 5
3 6 5 4 3 1 1 5 1 5 10 10 12 11 12 14 12 10 9 7 7 6 6 6 5 6 5 5 6 5 4 4 4 3 3 3 4 4 4 4 4 5 4 4 5 4 4 5 7
Wind_Direction
306 297 81 44 55 56 277 249 265 98 78 332 58 122 120 62 70 122 63 139 141 139 148 145 146 143 141 138 130 120 113 110 105 102 96 91 88 85 81 74 70 67 62 59 56 51 45 38 33
271 252 48 86 89 65 274 260 171 83 132 125 72 81 62 82 82 114 131 128 134 130 130 145 148 149 146 148 130 121 115 112 109 104 99 94 87 82 76 70 64 60 56 52 46 41 35 26 20
281 36 83 90 113 179 211 226 184 97 145 102 100 46 85 53 79 139 126 129 117 114 120 115 130 123 132 133 122 116 116 113 109 102 98 91 82 72 66 61 53 46 41 36 35 29 20 14 8
24 21 48 91 198 240 202 193 125 129 103 75 120 74 65 12 142 145 138 128 119 113 108 114 102 101 112 114 117 116 112 110 107 102 98 94 87 77 67 58 47 32 20 12 7 7 1 359 356
41 48 78 107 246 243 241 173 145 145 130 109 152 129 73 34 99 131 135 132 137 133 123 116 111 114 109 108 111 115 116 115 110 102 96 93 88 81 72 50 32 16 5 0 358 353 350 346 343
50 91 89 197 245 250 211 158 140 93 90 116 81 94 100 126 132 139 134 131 136 135 128 121 113 120 127 124 115 107 108 113 112 105 101 92 74 44 14 4 354 345 343 345 344 341 338 333 331
122 98 187 185 232 220 151 162 140 129 121 71 125 89 103 153 140 138 140 137 133 125 119 118 109 98 127 132 118 114 112 101 90 85 79 58 23 1 355 348 337 334 333 333 331 328 324 321 323
110 99 142 224 204 183 160 105 113 120 129 126 32 144 162 150 123 116 127 125 127 126 125 134 119 101 96 97 79 110 123 126 123 89 2 344 342 341 340 331 327 325 328 327 326 318 316 318 322
132 81 183 211 175 172 178 130 34 57 102 79 69 77 121 126 121 115 121 118 137 146 146 145 142 136 135 134 133 101 48 41 358 350 339 323 314 317 317 308 303 310 314 318 320 319 319 315 308
108 139 207 196 208 175 161 128 132 120 104 79 90 82 122 127 137 135 143 156 166 167 166 164 163 163 168 166 163 176 212 238 256 281 288 284 286 292 301 300 307 311 319 319 323 323 323 316 310
171 191 193 190 235 157 127 83 58 120 86 177 152 132 129 135 146 144 147 163 171 178 180 182 175 177 176 177 178 209 221 243 265 261 258 271 282 295 291 297 313 324 324 321 327 327 325 317 319
163 221 185 221 168 125 113 102 61 43 7 220 117 126 110 122 126 140 146 159 169 181 189 196 193 179 187 177 188 200 231 234 254 270 306 290 288 290 291 303 315 313 313 304 301 312 318 319 315
189 212 177 151 81 71 87 70 107 41 53 78 80 74 74 73 69 54 61 49 107 160 200 205 191 198 206 193 185 205 258 279 297 330 321 305 297 300 318 323 328 334 337 333 332 336 329 331 336
206 173 160 126 135 110 104 88 75 41 67 76 85 80 73 67 56 55 35 33 32 25 5 338 214 205 196 191 153 120 82 10 38 40 18 9 350 337 8 31 22 19 17 5 359 2 357 1 2
171 141 142 58 156 132 141 51 56 89 81 81 81 78 77 68 56 45 28 35 13 9 348 356 310 207 196 151 108 79 57 57 50 37 32 26 18 38 47 36 30 24 21 15 18 18 17 22 3
195 118 157 32 3 107 182 185 82 106 108 90 80 85 81 70 59 38 21 11 11 17 9 357 346 268 125 94 76 70 63 63 52 47 36 28 27 37 42 39 27 25 32 24 20 19 31 10 358
294 177 158 159 10 161 49 151 167 132 127 108 100 93 89 81 52 32 23 28 12 12 17 354 28 57 98 88 85 75 67 62 51 47 44 34 39 42 50 48 32 25 38 34 22 25 17 11 353
195 157 135 148 14 46 73 103 104 120 142 130 119 99 85 64 37 31 30 23 26 22 32 25 35 82 106 101 93 81 70 64 55 45 45 41 40 46 51 45 41 35 33 29 23 23 27 17 348
272 151 122 50 33 77 74 119 140 135 132 134 137 119 104 80 44 49 40 36 44 35 40 39 45 44 96 105 103 89 80 68 57 48 46 44 46 47 45 47 41 34 40 34 22 5 21 19 357
264 209 123 108 39 81 133 102 123 128 117 158 145 140 127 114 74 56 40 45 49 45 50 43 54 49 61 77 99 101 97 76 73 63 49 38 42 44 51 46 45 41 39 35 30 29 12 20 21
216 217 164 141 101 73 148 87 183 76 119 129 124 126 124 111 107 70 57 41 47 49 52 60 64 66 61 84 99 98 92 83 64 45 50 36 38 41 45 44 43 42 41 38 34 22 28 22 24
201 248 168 139 119 159 351 211 209 177 182 191 170 159 140 112 96 88 72 58 55 39 61 65 61 67 64 74 79 78 88 93 70 72 63 52 42 45 45 47 43 47 44 42 34 31 33 34 31
210 156 210 157 142 139 197 291 155 153 202 203 197 170 151 143 135 111 91 78 63 58 59 69 70 62 58 60 76 87 87 88 86 72 67 50 45 47 47 46 46 44 43 46 42 37 36 41 44
150 118 182 190 173 220 173 179 213 200 195 188 167 180 163 154 146 131 123 112 89 71 65 68 71 64 61 67 70 80 89 90 82 65 68 53 48 43 41 49 44 47 46 43 43 45 44 45 46
237 152 187 209 195 189 159 181 249 179 201 189 176 170 166 163 159 152 138 124 109 89 80 78 73 71 67 70 70 75 80 81 78 68 64 58 48 41 38 48 43 47 48 45 47 46 46 42 50
212 173 160 190 181 202 162 224 242 291 340 150 153 154 153 152 155 158 137 133 127 113 97 98 91 85 74 74 76 73 77 80 77 69 73 64 68 57 44 58 56 52 48 46 47 44 44 41 39
172 230 147 109 27 99 189 295 274 355 114 141 149 150 163 160 150 147 141 135 122 109 105 111 108 100 91 91 90 82 79 79 80 75 75 74 58 71 58 59 62 55 51 48 52 48 41 39 33
192 154 126 29 150 171 217 269 234 217 173 162 164 167 167 159 150 150 152 135 137 114 119 111 107 111 106 100 95 88 83 82 83 80 74 68 62 59 55 55 50 53 51 47 50 54 39 36 25
145 174 127 111 102 153 153 247 196 205 184 180 180 177 165 157 152 154 154 150 135 123 125 120 118 113 107 103 100 96 90 86 84 85 79 74 73 62 59 54 54 49 41 35 40 36 34 26 14
286 166 153 169 206 360 74 265 147 244 176 172 172 156 151 149 152 152 153 157 146 141 138 133 135 128 128 118 102 99 105 106 104 97 86 81 73 61 60 52 44 32 25 16 21 6 353 358 354